Wind_Speed
63 62 66 68 66 64 64 61 56 52 49 48 48 45 44 46 48 47 43 37 35 39 51 67 81 89 88 77 64 57 59 68 74 81 86 87 88 83 65 54 61 72 73 72 72 73 72 70 68 64 61 62 59 56 54 52 51 51 51 51 52 53 51 50 52 53 53 51 50 49 47 46 47 49 50 52 54 56 58 59 58 57 57 55 53
63 64 68 69 65 64 65 61 56 51 46 45 46 46 45 45 47 48 43 38 36 37 46 62 75 87 92 82 69 59 59 66 69 74 84 87 87 87 73 56 56 66 72 75 75 74 74 72 69 67 63 61 58 55 54 53 51 50 50 51 53 53 53 54 55 56 56 55 53 52 51 49 49 50 53 55 57 59 59 58 58 57 56 54 53
64 65 70 69 65 65 64 60 56 51 44 43 45 46 46 45 45 46 43 39 37 36 41 55 70 84 93 87 72 62 59 65 70 74 84 89 88 86 72 55 55 64 69 74 77 75 75 73 70 68 64 59 56 54 53 54 51 49 50 50 52 53 54 57 57 57 57 57 56 55 54 54 54 55 58 60 60 60 60 59 58 57 56 55 53
63 66 69 68 65 65 64 58 55 51 42 39 44 46 46 46 45 44 42 39 38 37 38 49 66 82 94 92 76 64 60 64 71 79 85 90 89 85 70 53 53 64 67 68 73 75 74 73 69 67 64 59 56 54 54 54 52 50 48 48 50 52 54 57 59 59 60 61 60 57 55 55 58 60 62 62 61 60 60 59 58 58 56 55 53
64 66 69 68 65 65 63 57 53 51 43 36 42 47 46 47 47 44 42 40 39 38 36 43 61 79 93 95 80 67 63 64 69 76 82 88 90 84 73 58 53 63 67 63 68 71 70 69 67 65 64 59 55 54 55 55 53 50 48 48 49 51 53 56 58 60 63 63 62 61 59 59 62 63 62 62 60 59 59 58 57 56 55 54 52
63 66 69 68 65 63 61 55 50 50 45 36 38 46 48 48 48 46 44 41 40 39 37 40 55 75 92 96 83 69 66 64 67 74 80 87 89 85 79 66 56 62 68 65 66 69 67 66 65 64 63 59 55 54 55 56 54 50 48 48 48 49 53 56 58 62 66 66 64 65 66 64 64 63 62 60 59 57 56 56 55 55 54 53 52
62 64 68 68 65 61 59 54 49 47 45 39 35 43 49 49 49 47 46 44 42 40 38 39 49 70 88 94 84 71 66 63 65 73 80 86 89 87 83 71 59 61 68 68 68 68 66 64 63 63 62 58 55 54 55 56 52 49 49 48 47 47 49 53 58 64 68 68 67 68 68 65 62 61 60 59 57 55 55 54 53 52 52 51 50
62 64 67 68 65 60 57 53 48 47 45 41 36 39 47 51 50 48 48 46 44 43 41 39 44 63 82 91 86 73 66 63 63 71 80 87 90 89 85 74 63 63 69 70 68 68 67 64 62 63 61 59 58 56 55 54 51 50 51 51 48 46 46 48 55 63 68 69 69 69 67 64 61 60 60 57 55 54 54 54 54 53 52 51 50
62 63 67 69 68 60 54 52 48 47 46 42 38 37 43 51 52 50 49 49 47 46 44 40 41 54 74 89 90 78 68 64 61 66 79 88 90 89 87 79 71 68 69 71 69 67 68 65 62 62 61 61 60 55 52 52 52 52 53 51 49 48 47 47 51 60 66 68 69 68 65 62 60 59 57 55 54 55 54 54 53 52 52 51 50
63 64 68 70 69 60 53 52 50 48 48 45 41 37 39 49 54 54 52 51 50 48 46 43 40 46 65 87 93 82 72 68 62 63 75 85 88 89 89 86 81 76 73 74 73 70 70 68 64 62 61 61 59 54 51 52 53 53 52 50 50 50 49 48 50 56 63 67 69 67 63 60 59 58 56 55 56 55 54 53 52 51 50 49 49
63 64 67 69 67 59 53 53 52 50 49 47 44 39 37 44 53 57 55 54 53 50 47 45 42 42 57 84 96 85 74 70 65 63 71 82 86 87 89 90 89 85 81 80 78 74 72 69 65 63 63 61 58 53 52 53 54 54 51 49 49 50 49 48 49 53 58 62 66 65 61 59 59 57 56 56 55 54 53 52 51 50 48 47 47
63 63 67 68 66 58 52 54 54 52 50 48 45 42 38 40 50 57 59 57 55 54 50 46 45 44 53 80 96 88 75 71 67 64 70 81 84 84 85 88 88 87 85 82 80 77 74 70 66 65 65 62 58 54 54 56 56 54 52 50 50 50 48 47 48 50 53 56 60 61 60 59 58 56 55 54 53 52 52 51 50 49 49 50 49
65 64 67 69 65 57 51 53 55 53 51 47 45 43 39 37 45 55 59 60 58 56 52 47 46 46 53 75 95 91 78 72 68 65 71 80 84 82 82 83 83 85 84 81 79 78 75 72 68 66 66 63 58 56 55 56 56 55 53 52 51 50 49 49 50 50 51 54 56 58 58 57 55 53 52 52 52 51 50 50 50 51 51 51 51
65 64 66 67 64 56 50 52 54 54 50 46 43 42 40 36 41 50 56 60 60 57 54 49 47 48 54 73 94 95 84 75 69 65 70 80 85 84 82 82 82 83 84 81 79 77 75 73 69 66 67 64 59 56 55 55 55 54 54 53 52 51 52 55 55 54 55 57 57 57 56 53 50 49 50 51 52 52 51 51 50 50 50 50 51
65 64 66 67 65 57 50 50 53 54 50 46 42 40 38 34 36 44 50 57 60 58 55 51 48 48 54 72 93 98 90 80 72 66 69 79 87 87 84 84 83 83 83 82 79 78 76 73 69 67 67 65 61 57 56 55 54 53 54 55 54 54 57 59 58 58 58 59 59 59 58 54 51 50 52 54 55 55 53 51 50 50 51 52 52
65 63 65 66 63 56 50 48 51 54 50 44 41 37 35 32 32 38 43 51 58 59 56 53 50 49 53 71 93 100 94 85 76 68 68 77 87 89 85 84 83 82 83 82 79 79 78 73 69 68 69 67 63 59 57 56 54 52 54 57 57 57 60 60 59 59 59 60 60 60 60 57 53 52 54 57 57 56 52 50 50 52 53 54 55
65 63 63 65 63 56 49 47 50 52 49 43 40 36 32 29 27 32 37 44 53 56 55 53 52 50 53 69 91 101 97 89 80 71 68 74 85 89 86 83 81 80 81 81 79 79 78 74 70 69 70 69 65 62 60 58 54 51 52 57 60 61 62 61 60 60 61 61 60 59 59 56 53 54 57 58 57 56 53 51 51 52 55 57 58
65 62 61 64 63 54 46 45 48 51 48 41 37 34 31 27 23 24 31 37 46 51 53 53 52 50 52 68 89 99 99 94 85 75 70 73 81 86 85 83 81 77 77 78 78 77 76 74 72 71 71 70 66 63 62 60 57 53 51 54 59 61 62 61 61 62 63 63 62 61 60 58 58 59 61 61 59 58 56 54 54 54 56 58 57
64 61 60 62 62 52 44 42 45 49 47 39 34 32 29 26 21 18 23 31 40 45 49 51 52 50 51 65 86 98 99 97 91 79 72 72 77 82 81 80 79 76 75 76 77 76 75 74 73 72 71 70 67 64 62 61 59 57 53 53 56 58 59 59 60 61 63 63 63 62 62 62 63 63 62 62 61 59 58 58 58 57 58 59 59
63 61 59 61 60 50 41 40 42 46 46 39 32 29 27 24 21 17 15 23 33 41 45 48 49 48 50 62 82 95 97 97 93 83 74 71 74 80 80 78 77 74 73 75 76 75 74 74 73 71 71 71 69 66 63 61 59 58 56 54 53 53 55 56 57 58 59 58 57 57 58 58 59 59 60 59 59 59 59 60 61 61 60 60 60
62 61 59 59 57 48 38 37 38 41 44 39 32 28 24 22 20 17 14 14 23 32 38 43 45 46 50 60 78 92 96 96 93 86 78 72 71 78 82 80 77 75 73 73 75 75 75 74 72 70 70 72 71 67 64 62 59 57 56 54 52 52 54 55 55 56 56 54 53 52 53 54 54 53 54 55 55 56 58 60 62 63 63 61 60
61 61 59 58 55 45 36 34 34 37 39 37 32 28 23 20 18 17 16 14 17 22 29 36 39 42 48 59 76 89 94 96 94 88 80 72 70 76 80 79 78 77 75 74 73 73 74 74 72 70 71 72 72 69 66 63 62 60 57 55 55 56 56 56 55 55 54 53 52 52 52 52 52 51 52 53 54 54 57 60 61 61 60 59 57
60 59 58 57 52 43 34 31 30 32 35 34 30 27 23 19 18 18 19 20 21 23 27 31 35 40 47 58 73 86 91 94 94 89 80 72 70 75 78 77 77 77 76 73 71 71 73 74 72 71 71 72 73 71 68 66 66 64 62 61 60 59 59 59 58 58 56 54 53 52 51 50 51 52 52 53 53 53 55 58 59 57 56 56 54
58 58 57 55 50 41 32 29 27 27 30 29 25 23 20 17 16 18 21 25 27 29 30 32 35 40 48 59 71 83 89 92 93 89 79 71 71 74 75 76 77 76 74 73 71 71 72 73 73 72 72 73 74 73 71 70 70 68 66 66 65 63 62 62 61 60 60 59 57 55 54 54 54 54 55 55 55 55 55 57 56 55 54 55 56
55 56 56 54 50 40 31 27 26 24 24 24 21 18 15 12 11 12 17 23 27 30 31 34 37 42 51 60 69 79 86 90 92 89 79 71 71 72 73 73 74 74 73 72 72 72 72 72 73 72 72 73 75 75 74 73 71 69 68 70 69 66 65 66 64 63 63 62 62 61 60 60 59 58 58 58 59 59 59 58 57 56 55 56 58
53 55 54 52 49 40 29 25 24 22 20 19 16 14 11 8 6 5 8 12 18 24 28 33 38 43 50 59 66 75 83 88 90 88 80 71 70 71 71 71 71 71 70 70 70 72 74 74 74 73 71 71 74 76 76 74 71 68 68 71 71 68 67 68 66 65 65 65 65 64 63 63 64 64 63 63 63 63 63 62 60 59 58 58 58
52 53 53 51 48 38 27 21 21 21 18 15 13 11 9 7 5 4 5 7 10 17 23 29 35 41 48 57 64 72 79 85 88 87 80 71 69 68 69 70 70 69 69 69 70 73 75 76 75 73 70 69 71 73 75 76 72 66 66 71 72 69 68 68 66 66 66 66 66 65 64 65 67 68 68 67 65 65 65 64 63 62 61 61 61
50 52 53 51 47 38 26 19 18 18 17 15 11 9 8 7 6 6 7 8 8 12 18 24 31 38 46 55 62 69 75 80 84 85 79 70 67 67 67 67 68 67 67 68 70 71 73 75 75 73 71 71 71 73 76 78 73 65 64 69 72 69 68 68 67 66 66 66 67 68 68 67 67 68 68 68 66 65 65 64 63 63 64 64 64
47 50 51 51 48 39 26 18 16 16 15 15 11 8 6 6 6 5 6 8 10 13 17 22 29 38 46 53 60 67 71 75 80 82 78 70 66 67 66 65 63 62 61 63 66 68 71 73 75 75 74 74 73 74 76 78 75 67 64 68 71 70 69 69 68 67 66 66 66 67 68 67 66 66 67 67 67 66 65 64 63 63 64 65 65
44 47 49 50 48 40 26 17 16 14 13 13 11 7 4 5 6 6 6 7 10 14 18 21 27 37 45 51 57 63 67 71 75 77 74 69 67 66 66 65 65 64 62 62 64 66 69 72 73 75 75 75 74 74 75 77 77 72 68 69 72 72 70 70 69 67 66 66 65 65 65 65 63 62 63 64 66 66 65 65 64 64 65 66 66
42 44 47 49 49 42 29 17 15 14 11 10 9 5 3 5 6 6 7 6 8 14 19 22 26 35 42 48 53 58 64 68 72 72 71 69 66 65 65 65 65 65 65 66 67 67 67 67 69 71 72 73 74 75 75 76 77 74 71 70 72 72 71 71 70 69 68 67 66 66 66 66 64 62 61 62 64 65 66 66 66 67 67 66 66
40 41 44 48 50 46 34 20 13 13 10 7 6 4 4 6 6 6 6 5 6 13 20 23 27 35 41 44 47 53 60 66 69 69 67 65 63 62 64 66 65 64 64 66 68 70 70 68 66 66 67 69 71 74 75 76 76 74 72 71 71 70 71 71 72 71 70 69 68 67 66 66 66 65 64 64 65 65 66 67 68 68 68 68 68
38 38 41 45 48 48 38 22 13 12 9 4 4 4 5 7 7 5 5 5 7 13 20 25 30 36 40 41 44 50 57 62 67 67 63 61 60 61 64 66 66 66 66 66 66 68 69 68 67 65 64 65 68 72 75 76 76 74 72 71 69 68 68 70 71 71 70 69 68 67 66 65 65 64 64 65 66 66 66 65 65 65 66 66 66
37 37 39 42 45 46 39 24 13 11 8 3 4 5 5 6 7 6 4 5 9 15 21 27 32 37 40 40 43 48 53 57 62 64 63 59 58 61 65 66 66 66 67 67 67 67 66 66 65 63 61 61 63 67 72 76 76 75 72 71 69 67 67 69 69 68 68 68 68 68 67 66 65 64 64 64 65 66 66 65 64 64 64 64 64
35 35 36 38 41 43 39 25 12 9 8 3 4 6 6 6 7 7 5 6 11 17 23 29 34 37 38 39 43 48 51 53 56 61 63 61 59 61 65 68 68 67 67 66 66 65 64 63 64 64 63 62 61 63 67 72 76 76 74 72 72 71 71 71 70 69 69 70 71 70 69 68 67 67 66 66 66 66 66 65 65 64 64 64 64
32 32 33 35 36 39 40 30 15 8 6 4 4 6 7 7 7 8 8 8 11 17 24 30 35 37 38 40 43 48 52 54 55 57 60 62 62 62 65 68 69 70 69 68 67 67 66 64 64 64 65 64 64 65 67 69 73 76 76 75 75 75 75 74 73 73 74 74 74 74 72 71 70 69 68 69 68 67 66 66 66 65 64 64 64
30 29 30 32 33 35 38 35 24 11 6 4 4 6 8 8 8 9 11 10 12 17 23 29 34 38 39 41 45 49 52 55 57 57 58 60 62 63 64 66 68 70 71 71 71 71 70 69 68 67 66 65 65 66 67 68 71 74 77 77 77 78 78 76 75 76 77 78 78 77 76 74 72 70 70 72 72 70 68 67 66 66 66 66 67
28 28 28 29 31 32 34 34 30 21 11 5 5 7 8 9 9 11 13 13 14 16 20 25 31 37 40 42 45 50 53 55 57 59 60 62 63 64 65 66 68 69 70 70 71 72 72 71 69 68 68 67 66 66 67 67 69 72 76 78 79 79 79 78 77 77 77 78 78 78 77 75 74 73 72 73 73 72 70 68 66 65 66 68 70
28 27 27 27 28 29 30 30 29 26 20 10 5 7 9 9 10 12 15 16 16 16 18 22 27 33 38 41 44 48 51 54 57 59 61 62 64 65 66 67 68 69 70 70 71 72 71 70 69 68 68 69 68 68 68 67 67 69 73 77 80 81 80 79 78 78 78 77 77 77 76 75 75 75 76 76 75 73 72 71 69 67 66 68 71
28 26 25 25 26 27 27 28 27 26 23 16 7 7 10 10 10 12 16 18 18 18 18 19 22 27 33 37 41 44 49 52 55 58 60 62 63 65 66 67 69 70 70 71 72 71 70 69 68 67 68 68 68 68 68 68 67 67 69 74 78 81 81 80 78 78 78 77 77 76 76 75 74 75 77 78 78 78 77 77 75 73 71 73 75
27 26 24 24 25 25 26 26 26 24 23 20 13 5 8 11 11 12 15 18 19 19 20 21 21 23 27 31 36 40 45 50 53 56 58 60 62 64 65 66 67 69 70 71 72 72 71 70 70 69 69 68 68 68 68 68 69 69 69 71 74 77 79 80 79 79 78 77 77 76 75 75 75 75 76 77 78 80 81 81 81 79 79 79 80
27 26 25 24 24 24 24 25 24 23 22 21 18 10 4 8 12 13 15 17 20 21 21 22 23 24 25 27 30 34 39 45 50 54 57 59 60 62 63 64 65 66 68 69 70 71 71 72 72 72 72 72 71 71 71 71 71 72 72 73 74 75 77 79 80 80 79 78 77 76 76 75 76 75 75 76 77 78 80 81 81 81 82 83 83
26 26 25 24 23 22 22 23 23 23 21 20 18 15 8 2 7 12 15 17 19 22 24 24 25 25 25 25 27 31 34 38 43 49 54 58 60 62 64 64 65 66 67 68 69 71 72 73 73 73 74 74 74 74 74 74 74 75 76 77 77 77 77 77 78 80 81 81 81 80 79 78 77 76 76 77 77 78 79 80 81 82 81 81 81
26 26 26 24 23 22 21 21 22 22 21 18 17 17 14 9 2 5 11 15 17 20 23 26 28 28 27 25 26 28 32 34 37 41 45 50 55 59 62 64 65 66 67 67 68 69 70 71 71 72 72 73 74 74 74 74 74 75 76 77 78 78 78 77 77 77 79 81 82 82 82 81 81 80 79 79 79 79 80 81 82 83 82 80 79
26 26 26 25 23 22 21 20 20 21 21 19 18 17 16 15 11 5 3 9 14 17 21 25 29 31 30 28 27 27 30 32 35 37 39 42 46 50 54 58 61 63 64 64 64 65 65 66 67 68 69 70 71 73 73 73 74 74 75 75 76 77 78 79 79 78 78 79 80 81 82 82 83 82 82 82 81 81 82 83 83 84 83 82 81
26 25 25 25 23 22 22 20 19 19 20 20 18 16 15 15 14 11 5 2 7 13 17 21 26 30 32 32 31 30 30 30 32 35 38 39 41 43 46 50 54 58 61 63 64 65 65 65 66 66 67 68 69 71 72 73 74 75 75 75 75 75 76 77 78 79 79 80 80 80 80 80 81 81 81 82 83 82 82 83 84 83 82 80 80
26 25 25 24 23 22 21 20 19 18 18 18 18 16 15 14 13 12 10 5 2 6 11 16 21 26 30 32 33 34 33 33 32 34 37 39 41 42 43 45 48 51 55 60 63 66 67 67 67 67 67 67 68 69 70 71 72 73 74 74 74 73 73 74 75 76 77 77 78 79 79 78 78 78 78 79 80 81 81 82 83 83 83 83 82
26 26 25 24 24 23 21 20 20 19 18 17 17 17 16 14 13 12 11 9 6 2 5 10 15 20 24 29 31 33 34 35 35 35 36 39 42 44 46 47 48 49 51 54 57 61 64 66 68 68 68 68 67 66 66 66 67 68 69 70 71 70 70 70 71 72 72 73 73 74 75 76 76 76 76 77 77 79 79 80 81 83 84 86 87
26 26 25 24 24 23 23 21 20 20 19 17 16 16 16 16 14 12 11 10 9 6 3 4 8 13 17 22 26 29 31 34 36 37 38 39 41 44 47 49 51 52 53 54 55 56 58 60 62 64 65 66 65 64 63 63 63 63 64 65 66 67 67 67 69 70 71 72 73 73 74 75 75 75 75 76 76 76 77 78 79 81 82 84 87
27 26 26 25 24 24 23 22 21 21 20 19 18 17 17 16 16 14 12 11 10 9 7 5 4 7 11 15 19 23 26 29 32 35 37 39 41 43 45 48 50 53 55 56 57 58 59 59 60 61 62 63 63 63 62 62 62 62 62 62 63 64 65 66 68 69 71 72 73 74 75 75 75 75 75 75 75 75 75 76 77 78 80 81 83
26 26 26 25 25 24 24 23 22 21 20 20 20 19 18 18 17 16 15 13 12 11 10 9 7 6 7 9 12 15 19 23 26 30 33 36 38 41 43 45 48 50 52 54 57 58 60 61 63 64 64 64 64 64 64 63 63 63 63 63 63 64 65 66 67 69 70 71 72 73 74 74 74 74 74 74 74 74 74 75 76 77 78 79 80
Wind_Direction
320 318 321 323 323 323 322 318 310 298 283 270 267 266 262 259 258 259 262 259 257 254 239 227 223 217 209 204 201 196 191 192 199 206 206 205 209 211 213 214 211 209 211 216 218 217 217 219 219 219 217 216 217 219 217 217 217 217 218 219 222 225 226 222 219 221 223 222 222 223 224 224 221 218 215 214 214 212 209 206 206 207 209 210 212
322 321 324 326 325 325 325 322 316 306 287 267 259 259 258 257 256 257 259 257 255 257 244 230 225 218 210 205 204 201 193 187 190 198 203 204 207 210 211 211 211 209 210 213 217 217 216 218 220 219 217 215 217 220 219 218 218 218 218 219 220 223 223 220 216 217 219 221 221 223 225 223 219 217 216 214 212 209 207 207 208 208 209 210 212
323 324 327 328 326 327 328 324 320 315 295 268 254 252 252 254 255 255 256 254 251 256 249 233 226 219 211 207 206 203 194 188 189 194 199 202 204 206 207 209 213 211 209 211 214 216 215 217 219 218 216 215 215 218 219 219 220 221 221 220 220 221 220 218 216 215 216 218 219 221 223 223 219 215 213 213 210 207 206 207 208 208 209 211 213
323 326 329 329 327 329 330 325 323 322 306 273 252 248 248 249 252 252 251 250 247 253 252 237 227 220 214 209 207 203 194 190 192 198 202 202 201 203 205 208 213 212 210 210 211 212 213 215 217 217 216 214 212 215 219 219 220 221 221 219 218 219 218 217 217 216 215 215 215 217 220 223 221 215 212 212 210 207 207 207 208 209 210 211 212
325 327 330 330 327 329 331 327 323 325 316 284 255 247 246 245 248 249 246 244 244 249 252 240 228 221 216 211 207 202 194 189 191 198 205 204 201 204 207 206 208 210 210 210 209 209 212 214 216 217 216 213 211 214 217 219 219 219 219 219 220 222 222 220 218 217 215 213 213 214 215 216 218 217 216 214 212 209 207 208 209 210 210 211 212
326 327 330 330 328 328 332 329 323 324 322 300 264 248 245 243 244 245 243 240 241 245 250 243 229 222 218 212 207 201 194 189 189 196 204 205 203 206 209 205 204 208 210 209 209 209 210 213 215 216 216 213 212 214 216 217 219 218 219 220 220 222 223 222 220 218 215 213 213 214 215 215 216 218 218 215 211 209 209 209 210 209 210 211 213
325 327 329 330 329 329 332 330 323 322 323 313 283 255 246 243 241 242 241 238 239 242 246 245 231 222 219 213 206 200 194 190 190 193 200 205 204 205 207 204 201 205 209 209 208 210 212 212 213 215 214 213 213 215 215 216 217 218 217 217 217 218 220 221 219 217 216 213 212 214 216 217 218 219 217 212 209 208 208 209 210 210 211 212 213
327 328 329 330 331 330 331 330 324 319 319 317 301 270 251 243 239 239 238 236 237 239 243 245 234 224 220 213 206 200 196 193 191 192 197 204 205 205 205 204 200 202 209 211 210 211 214 213 213 214 213 212 213 215 216 216 217 217 215 215 216 218 219 220 218 216 215 214 213 214 215 218 219 216 211 208 208 208 208 208 210 210 211 213 214
327 328 330 331 332 330 329 329 324 318 316 314 308 287 261 246 238 236 237 235 235 236 239 241 235 226 220 213 206 201 198 196 193 192 196 203 206 205 205 206 203 201 206 211 212 213 215 215 213 213 212 212 212 214 215 216 217 217 216 217 220 221 222 223 221 218 217 216 215 215 216 218 216 211 208 208 208 207 207 208 210 211 212 213 214
329 329 331 332 332 330 329 329 325 319 315 312 308 297 273 253 242 236 234 235 234 234 235 237 235 227 219 213 207 202 199 199 196 191 195 202 205 204 204 207 207 204 205 210 213 215 216 216 214 213 213 212 211 212 214 216 216 215 217 220 223 223 223 224 222 218 217 217 216 217 217 215 212 210 209 208 206 206 207 210 212 214 215 215 215
331 331 332 333 333 330 328 329 327 320 316 312 307 300 283 260 246 238 233 232 233 233 233 234 233 226 217 212 207 202 200 200 197 192 192 199 204 204 204 207 209 208 208 210 213 215 215 215 214 214 213 210 208 209 211 213 214 215 219 222 222 221 221 222 218 212 212 214 214 215 214 213 212 211 209 206 205 207 209 211 213 215 217 219 221
331 331 332 334 334 330 328 330 328 323 317 312 307 302 289 266 249 241 234 231 231 232 231 231 231 226 216 211 207 202 199 199 198 193 191 196 203 205 204 206 208 209 209 209 211 213 213 214 214 214 212 208 206 207 208 212 215 218 221 221 219 219 220 218 211 205 204 206 208 210 211 211 211 210 209 208 209 210 211 212 214 216 218 220 222
332 332 332 334 333 328 327 330 330 325 319 313 308 304 296 272 250 241 236 230 229 231 231 229 229 225 216 211 207 203 200 199 198 194 191 195 201 204 205 205 206 208 208 207 208 210 211 212 214 213 210 207 205 206 208 211 215 217 219 219 218 218 216 209 204 202 202 203 206 209 210 210 209 209 210 212 212 213 214 215 216 218 220 222 223
331 331 332 333 332 328 326 330 331 328 322 314 309 307 302 281 253 240 236 231 228 229 230 228 228 225 216 210 207 203 201 199 197 193 192 195 201 203 204 206 207 208 207 206 206 208 210 211 213 212 208 205 203 204 206 208 210 213 216 217 218 217 212 205 201 201 201 202 205 207 209 210 209 211 214 216 216 216 217 218 219 221 223 224 225
330 332 332 333 333 328 325 329 331 330 324 315 310 310 308 291 259 240 236 231 227 227 228 227 226 224 217 210 206 203 202 200 197 194 193 196 201 203 203 205 208 208 207 207 206 207 208 209 210 209 207 204 201 201 203 205 207 211 216 218 218 215 209 204 202 201 201 202 203 203 205 206 208 211 215 216 217 218 218 219 221 223 224 225 224
329 331 332 333 332 328 325 329 331 331 326 317 311 311 313 302 268 244 236 231 226 225 225 226 226 223 217 210 206 204 204 202 198 195 193 195 199 202 202 203 206 206 207 208 206 205 207 208 208 208 206 203 200 199 201 204 207 212 216 216 213 210 205 203 202 202 204 205 204 203 203 203 204 209 213 216 217 218 219 219 220 222 223 224 223
328 331 332 334 333 328 326 329 332 332 328 318 311 311 315 311 283 253 239 230 225 223 223 225 226 223 217 210 206 204 204 203 201 198 195 194 198 201 201 202 204 204 205 207 206 205 206 207 207 207 205 203 201 199 199 202 206 211 214 210 205 205 205 203 202 203 205 205 205 205 204 203 203 207 211 215 217 217 216 217 218 221 222 223 223
328 331 334 334 332 328 326 330 332 332 330 321 312 309 313 316 301 267 244 230 223 222 221 224 226 223 217 210 205 204 205 205 204 201 197 195 197 200 201 202 203 204 204 205 205 205 206 206 206 206 205 203 203 201 199 202 204 208 211 209 205 205 206 205 203 204 205 205 205 206 205 204 205 208 210 213 214 214 213 213 216 219 222 224 225
328 331 334 335 332 328 327 331 332 333 332 324 313 310 310 313 312 287 251 230 223 221 221 224 225 222 217 210 205 203 205 206 206 204 198 196 197 198 200 202 203 203 202 202 204 204 204 205 206 206 205 204 204 202 201 203 205 206 209 210 210 209 210 208 207 206 207 207 207 207 207 207 208 209 210 212 212 212 212 212 214 216 219 223 225
328 331 335 335 332 328 328 331 332 333 334 328 318 312 309 307 310 303 268 235 224 222 223 224 223 219 216 210 204 203 205 206 207 205 200 197 197 198 201 202 202 203 202 201 203 203 203 204 205 205 204 204 203 202 202 203 206 208 209 211 212 212 212 212 211 210 210 210 211 211 212 212 213 212 213 214 214 214 214 213 213 214 217 220 221
329 331 334 336 333 328 328 332 332 333 334 332 324 317 310 302 299 297 286 253 229 224 223 222 220 218 215 209 202 201 204 206 207 206 203 199 198 200 204 205 204 204 203 201 202 203 204 204 205 204 204 204 203 202 202 203 205 209 211 212 212 213 214 214 214 214 214 214 215 216 216 217 218 219 219 219 219 218 218 217 216 216 217 217 217
330 331 334 336 334 329 328 331 331 332 333 332 327 320 311 300 289 279 273 260 239 228 223 220 220 220 216 207 200 200 202 205 207 207 205 202 200 202 205 206 206 206 205 202 202 203 204 205 205 204 205 205 204 203 202 202 203 206 211 213 213 213 214 215 216 218 220 220 219 220 220 219 219 221 224 224 224 224 224 223 223 223 222 221 220
330 331 334 336 334 330 327 329 330 330 331 331 328 322 312 299 283 267 256 247 238 232 229 227 227 223 214 204 198 198 201 204 206 207 206 203 201 203 206 206 206 206 204 202 202 203 204 205 204 205 206 206 205 203 202 202 202 204 209 213 214 214 214 215 217 220 222 223 223 223 224 223 222 224 226 227 229 230 230 231 231 232 232 231 229
331 331 333 336 335 331 326 327 329 330 330 330 329 326 318 305 285 264 248 239 233 230 228 228 226 219 208 200 196 197 199 202 204 206 206 202 200 203 205 205 205 205 203 202 203 204 205 205 205 206 206 206 206 205 203 203 204 206 210 213 214 214 215 216 217 218 220 222 223 223 224 225 226 227 229 231 233 234 235 236 237 237 237 236 235
332 333 334 337 337 332 324 325 330 330 328 328 330 329 324 317 301 270 246 235 228 224 221 218 214 209 202 197 195 195 197 200 203 205 205 201 198 201 205 204 203 204 203 202 203 204 205 206 207 207 207 206 207 207 206 206 207 210 213 214 214 215 216 217 218 218 218 219 220 221 223 224 225 227 229 231 233 234 236 237 238 237 235 235 235
333 334 334 337 339 333 323 323 330 331 327 327 329 328 320 315 315 288 246 226 215 209 206 204 202 200 198 196 195 195 196 199 201 204 205 201 196 200 204 203 202 203 203 203 204 205 207 208 208 208 208 208 209 210 210 210 210 213 215 214 214 216 218 218 219 221 221 221 221 222 224 226 226 227 228 229 231 232 233 235 236 236 235 234 235
335 335 335 337 339 335 323 322 331 330 325 325 326 323 309 286 268 253 232 216 204 198 195 195 196 197 198 198 196 193 194 197 200 203 204 201 197 198 203 204 203 204 205 205 205 206 208 209 209 208 208 210 210 211 212 212 212 215 216 214 214 217 220 220 221 223 224 225 225 226 227 228 229 229 229 229 231 232 232 233 235 236 236 235 235
336 337 335 337 340 338 326 324 333 330 323 321 317 312 307 287 261 242 227 216 213 210 204 200 200 200 199 198 194 191 192 195 199 202 203 202 199 199 201 202 202 204 205 207 208 208 208 209 210 209 209 210 210 211 212 213 214 217 217 213 213 217 221 222 223 225 226 227 228 229 230 231 231 231 231 231 231 232 233 234 235 236 237 237 236
338 338 337 337 341 342 332 326 335 332 322 317 308 296 303 299 279 265 247 224 215 215 210 207 206 203 199 195 192 189 189 192 196 200 202 202 201 200 201 202 202 203 205 207 209 209 210 211 211 210 211 212 211 210 212 214 215 216 215 212 212 215 220 223 225 227 228 230 231 231 232 233 232 232 232 232 232 233 234 235 236 237 238 239 238
338 340 340 339 342 344 338 331 336 335 324 314 302 283 286 294 282 282 276 241 218 213 206 204 208 204 197 192 188 187 187 190 194 197 200 202 201 201 201 202 204 205 206 207 209 211 211 212 212 213 213 214 214 213 213 215 216 217 215 214 214 216 219 224 227 228 230 231 233 234 234 234 234 234 234 234 233 234 234 235 236 237 238 239 239
339 342 344 342 342 345 345 339 336 336 325 307 293 273 273 290 281 279 282 261 224 213 204 200 204 201 193 188 187 187 188 190 192 195 199 201 201 201 202 204 206 208 209 209 211 213 213 213 213 214 215 216 216 216 216 217 218 219 218 217 217 219 221 225 228 229 231 233 234 235 236 236 237 237 237 237 237 237 236 236 236 237 239 240 240
338 343 348 346 343 345 348 345 337 335 325 295 272 262 286 300 290 273 274 264 224 211 204 198 197 194 189 187 189 190 189 190 191 194 197 198 199 201 205 206 207 208 210 211 213 216 217 216 215 216 218 219 219 219 219 219 220 221 221 221 221 223 225 228 230 231 233 235 237 237 237 237 238 238 238 238 238 238 239 239 239 240 241 242 243
337 343 350 350 346 346 348 345 337 333 325 286 238 229 265 292 293 275 260 250 225 211 203 196 192 190 189 189 190 191 192 192 192 194 194 195 198 201 205 207 208 209 210 212 215 217 219 218 217 217 219 221 222 222 221 220 221 222 223 224 225 227 229 230 231 232 233 235 237 238 239 240 239 238 238 238 238 239 240 241 243 243 244 245 245
335 341 349 352 349 347 347 344 332 324 321 279 206 206 230 265 281 275 252 233 220 209 201 195 190 189 192 193 190 189 192 194 195 194 193 195 199 201 202 206 210 211 213 214 215 217 218 217 217 218 219 221 223 224 223 222 222 222 223 225 226 227 228 228 230 232 234 235 236 238 239 240 240 239 239 239 239 240 241 242 243 244 245 246 246
332 337 345 351 351 349 349 347 330 310 310 282 192 196 211 234 252 255 244 226 216 208 200 194 190 190 193 194 191 189 191 194 196 197 195 196 199 201 201 204 208 212 215 218 219 220 221 220 219 221 221 222 225 227 227 224 223 222 223 223 225 226 226 226 227 230 233 235 237 239 239 239 239 241 242 242 242 242 243 243 244 245 246 247 246
327 332 340 348 351 352 352 351 340 305 290 273 202 194 203 214 222 226 227 221 214 208 201 195 192 192 193 194 192 191 191 193 197 200 200 200 201 201 202 204 207 210 214 218 221 223 225 226 225 226 226 226 227 230 230 228 225 223 222 223 224 225 226 227 228 229 231 234 236 237 238 239 240 240 242 244 245 244 244 245 245 245 246 247 247
322 327 334 343 350 354 356 355 351 336 301 259 218 203 206 209 205 206 211 212 210 210 206 199 194 193 194 194 194 194 194 195 196 199 202 204 204 205 205 206 208 211 214 217 220 223 225 227 227 228 229 230 230 230 230 230 227 224 223 223 224 225 227 228 230 231 232 233 234 235 237 239 240 239 239 241 244 245 245 246 245 245 246 247 248
318 322 329 338 346 353 357 359 356 350 338 294 235 217 213 212 205 200 200 203 206 209 211 207 200 196 194 195 196 197 198 198 198 198 201 203 205 207 208 209 211 213 216 219 221 223 225 226 227 228 228 229 230 229 229 231 231 228 225 224 225 226 228 229 230 231 231 232 232 233 235 237 238 238 237 239 242 244 245 246 246 246 247 247 249
317 318 324 333 340 347 355 1 0 356 349 332 270 230 220 217 212 205 201 200 200 203 209 213 209 203 198 197 197 199 200 201 201 201 202 203 205 206 208 210 212 215 218 220 223 224 226 226 227 228 228 229 229 229 229 231 233 232 229 226 226 227 228 228 229 230 231 232 232 234 234 235 235 235 236 238 240 243 245 247 248 248 248 249 250
315 314 319 326 334 341 349 357 2 359 353 345 319 246 225 219 215 211 207 205 202 200 201 206 210 209 205 201 200 201 202 204 205 205 206 207 208 209 210 212 214 216 219 221 224 225 227 228 229 229 229 230 230 230 229 231 234 235 233 230 228 227 227 228 229 230 231 232 232 233 234 235 234 234 235 236 238 240 242 244 246 247 249 251 251
315 313 315 321 328 334 340 349 357 359 356 354 350 308 234 221 215 212 211 212 211 206 199 196 198 201 204 205 205 205 205 206 208 209 209 210 211 212 214 215 216 218 220 222 224 225 227 228 230 231 232 233 233 232 232 233 236 238 238 235 232 230 229 230 231 232 232 232 233 233 234 235 236 236 236 237 238 238 239 239 240 242 244 247 248
317 314 314 316 322 328 332 338 347 356 359 358 356 350 287 223 215 210 208 212 217 217 212 203 197 195 197 202 205 207 208 208 210 211 213 213 214 215 216 217 218 219 221 222 223 225 226 228 230 232 233 234 235 235 235 236 237 239 240 238 236 234 233 233 232 233 233 233 234 235 235 236 237 238 238 239 239 240 240 240 240 240 241 242 244
319 316 313 312 314 318 324 329 337 348 357 357 354 355 359 293 215 209 205 206 213 220 222 219 211 204 201 202 203 204 205 207 209 211 213 215 216 217 218 220 221 222 223 224 225 226 228 229 230 231 232 233 234 236 237 238 239 240 240 239 237 237 237 235 234 234 234 235 236 236 237 237 238 238 239 240 241 242 242 242 241 241 241 241 242
320 317 313 311 309 311 316 321 327 336 346 352 355 357 1 6 357 210 207 206 208 215 222 225 224 219 214 212 210 206 204 203 205 208 211 213 216 217 219 220 221 222 223 225 226 227 228 229 229 230 231 232 233 235 236 237 239 240 240 240 239 239 239 238 238 237 237 237 238 239 239 239 239 239 240 241 242 244 246 246 244 243 241 241 241
318 317 314 311 309 308 310 314 318 324 333 343 352 356 357 359 3 358 226 211 211 213 216 221 225 226 224 223 221 216 210 206 205 206 208 211 214 217 219 221 221 222 222 223 224 225 226 227 229 230 231 232 233 234 235 236 237 239 240 241 241 240 240 241 241 241 241 241 241 242 242 242 242 242 243 244 245 247 249 250 248 246 243 242 242
314 315 314 312 310 307 306 307 310 314 321 329 339 348 354 354 353 353 352 262 221 219 218 218 221 224 227 228 228 224 220 215 211 209 209 211 213 216 219 222 224 225 225 225 225 226 227 228 229 231 232 233 233 234 235 236 236 237 239 241 242 242 243 243 243 244 244 244 244 244 244 244 245 245 246 246 248 249 250 250 249 246 243 242 243
308 311 312 312 310 307 304 302 301 303 307 315 323 332 342 346 344 343 346 347 292 227 222 221 220 221 224 226 227 226 225 224 221 217 214 214 215 217 219 221 224 226 227 228 228 228 228 229 230 231 231 232 233 234 234 235 235 236 237 239 241 242 243 243 244 244 245 245 246 246 246 246 247 247 247 248 248 249 249 249 247 245 242 241 241
301 305 308 309 309 307 303 299 296 294 295 300 308 316 324 330 333 334 334 336 340 318 233 225 223 223 223 225 225 224 224 225 225 225 223 220 219 219 220 221 222 224 226 228 230 230 230 231 231 231 231 231 232 233 234 235 235 235 236 237 239 240 241 242 243 243 244 245 245 245 246 246 247 247 247 248 248 249 249 248 248 246 244 242 241
293 298 303 306 307 307 305 301 297 293 290 289 292 299 307 313 319 324 324 323 326 330 312 247 229 226 226 226 226 226 225 225 225 227 227 227 225 223 223 223 223 224 225 226 228 230 231 232 233 233 233 234 234 235 235 236 237 237 237 237 238 239 239 240 241 242 243 243 244 245 245 246 247 247 247 248 248 249 249 249 248 248 247 246 245
287 291 296 300 303 304 304 302 298 292 288 284 282 284 289 296 301 307 310 311 310 311 311 301 262 236 229 228 228 228 227 227 227 227 229 230 229 228 227 226 225 226 226 227 228 229 231 232 233 234 235 236 237 237 238 238 239 239 239 239 239 239 239 240 240 241 241 242 243 244 245 245 246 247 247 248 249 249 249 250 249 249 249 249 249
285 286 289 293 297 300 301 300 297 293 288 282 278 275 275 279 285 290 295 297 298 297 297 296 289 269 245 234 230 229 228 229 229 229 230 231 232 232 231 230 229 229 229 229 230 231 232 233 234 234 234 235 236 238 239 240 241 241 241 242 242 242 241 241 241 242 242 242 243 243 244 245 246 247 247 248 249 249 250 250 251 251 252 252 252
Height
5412 5406 5401 5395 5389 5383 5376 5370 5364 5360 5357 5357 5359 5362 5364 5365 5367 5370 5372 5373 5373 5373 5375 5380 5385 5391 5400 5408 5413 5418 5424 5431 5437 5445 5453 5460 5466 5473 5482 5490 5496 5502 5508 5514 5520 5526 5533 5539 5545 5549 5554 5560 5566 5572 5576 5580 5584 5588 5592 5598 5602 5607 5613 5617 5621 5625 5629 5634 5638 5642 5646 5650 5653 5656 5659 5663 5666 5669 5673 5676 5680 5684 5689 5694 5698
5404 5398 5392 5387 5381 5374 5368 5361 5355 5350 5347 5346 5348 5351 5354 5356 5358 5361 5364 5366 5366 5367 5369 5373 5377 5384 5392 5400 5406 5410 5416 5423 5430 5437 5445 5452 5459 5466 5474 5483 5489 5494 5499 5505 5511 5519 5527 5533 5538 5544 5549 5554 5559 5566 5571 5574 5578 5582 5586 5591 5596 5601 5607 5611 5615 5619 5623 5628 5633 5636 5640 5644 5648 5651 5654 5657 5660 5664 5667 5672 5676 5680 5685 5690 5694
5395 5390 5384 5378 5372 5366 5360 5353 5346 5341 5337 5336 5338 5341 5344 5347 5349 5353 5356 5358 5359 5360 5362 5366 5370 5376 5383 5391 5399 5404 5408 5414 5421 5429 5437 5444 5451 5460 5468 5475 5482 5487 5492 5497 5504 5512 5520 5526 5532 5538 5543 5547 5553 5559 5564 5569 5573 5576 5581 5585 5590 5595 5600 5605 5610 5614 5618 5623 5627 5631 5635 5639 5642 5645 5647 5650 5654 5657 5662 5666 5670 5675 5680 5685 5690
5388 5383 5377 5370 5364 5358 5352 5346 5339 5334 5330 5328 5329 5332 5335 5338 5341 5344 5347 5350 5352 5353 5354 5358 5363 5369 5375 5382 5391 5397 5401 5406 5414 5422 5431 5437 5444 5453 5461 5467 5475 5481 5487 5493 5499 5506 5514 5520 5526 5533 5538 5542 5547 5553 5558 5563 5567 5571 5575 5580 5585 5589 5594 5599 5604 5609 5613 5617 5621 5626 5630 5634 5637 5639 5641 5644 5647 5651 5656 5660 5665 5670 5675 5680 5684
5380 5375 5369 5363 5356 5350 5344 5339 5333 5328 5323 5321 5322 5323 5326 5329 5332 5336 5339 5342 5345 5346 5348 5350 5354 5361 5367 5373 5382 5390 5394 5399 5407 5415 5424 5432 5439 5447 5453 5460 5468 5475 5482 5488 5494 5501 5509 5515 5522 5528 5532 5536 5542 5547 5552 5558 5562 5566 5570 5575 5579 5584 5588 5593 5598 5603 5607 5611 5616 5620 5623 5626 5630 5633 5636 5640 5643 5647 5651 5655 5660 5665 5670 5675 5679
5373 5368 5362 5356 5349 5342 5337 5332 5327 5323 5318 5316 5315 5316 5318 5321 5324 5327 5331 5334 5337 5339 5341 5343 5346 5352 5359 5366 5375 5382 5386 5392 5400 5408 5417 5425 5433 5440 5447 5454 5461 5470 5477 5482 5489 5496 5504 5510 5517 5522 5527 5532 5537 5542 5546 5552 5557 5561 5565 5570 5574 5578 5582 5587 5592 5596 5600 5605 5610 5613 5616 5619 5623 5627 5632 5636 5639 5643 5648 5652 5656 5660 5665 5670 5674
5367 5361 5355 5350 5343 5336 5329 5325 5321 5318 5314 5311 5310 5310 5311 5313 5316 5319 5322 5326 5330 5332 5334 5336 5339 5344 5350 5360 5371 5376 5380 5386 5394 5401 5409 5418 5426 5434 5442 5449 5455 5463 5471 5477 5484 5492 5498 5504 5511 5517 5523 5528 5534 5537 5541 5546 5552 5556 5560 5564 5568 5572 5576 5581 5585 5590 5594 5598 5603 5607 5611 5615 5619 5623 5627 5631 5635 5640 5644 5648 5652 5657 5661 5666 5670
5360 5354 5348 5342 5337 5330 5323 5317 5314 5312 5309 5307 5304 5304 5304 5305 5307 5310 5313 5317 5322 5325 5327 5329 5333 5337 5342 5353 5365 5371 5375 5381 5388 5394 5402 5410 5418 5427 5436 5443 5449 5457 5465 5472 5479 5486 5492 5498 5505 5512 5519 5524 5529 5532 5536 5541 5547 5551 5555 5559 5563 5567 5571 5575 5579 5584 5588 5593 5597 5601 5606 5610 5614 5618 5622 5626 5631 5635 5639 5643 5648 5653 5658 5662 5666
5352 5347 5341 5335 5329 5323 5317 5311 5307 5304 5303 5301 5299 5298 5297 5298 5300 5302 5305 5309 5313 5317 5320 5322 5326 5331 5336 5345 5356 5363 5369 5376 5382 5388 5394 5402 5411 5420 5429 5437 5443 5449 5458 5466 5473 5480 5486 5493 5500 5508 5514 5519 5523 5527 5532 5537 5541 5546 5550 5554 5558 5562 5566 5570 5574 5578 5583 5588 5592 5596 5601 5606 5610 5614 5618 5622 5626 5631 5636 5641 5645 5650 5654 5657 5662
5345 5339 5333 5327 5321 5316 5311 5304 5300 5296 5295 5294 5293 5291 5290 5290 5292 5294 5297 5300 5304 5309 5312 5315 5319 5323 5330 5338 5347 5354 5361 5370 5376 5382 5388 5395 5404 5413 5422 5430 5437 5443 5451 5459 5466 5473 5480 5488 5496 5503 5508 5513 5518 5522 5526 5531 5536 5541 5546 5550 5554 5558 5562 5566 5569 5573 5578 5584 5588 5592 5597 5602 5606 5610 5614 5618 5623 5628 5633 5637 5642 5646 5650 5653 5657
5338 5332 5327 5322 5315 5309 5304 5299 5293 5289 5286 5285 5284 5283 5282 5281 5282 5285 5288 5292 5295 5300 5304 5308 5312 5316 5321 5330 5339 5347 5354 5363 5370 5376 5382 5389 5397 5406 5415 5423 5430 5437 5444 5451 5459 5467 5475 5483 5491 5497 5502 5507 5512 5516 5521 5526 5531 5535 5540 5544 5549 5553 5557 5560 5564 5567 5572 5578 5584 5589 5594 5599 5603 5608 5611 5615 5620 5624 5629 5633 5638 5642 5647 5651 5655
5331 5326 5321 5315 5309 5304 5298 5293 5287 5282 5278 5276 5274 5273 5272 5271 5272 5274 5279 5283 5286 5291 5296 5301 5305 5309 5314 5321 5332 5342 5349 5356 5363 5370 5376 5383 5391 5400 5408 5416 5424 5431 5438 5445 5454 5462 5470 5477 5484 5490 5496 5502 5507 5511 5516 5521 5526 5530 5535 5539 5543 5548 5552 5556 5560 5564 5569 5575 5580 5585 5590 5595 5600 5605 5609 5613 5617 5621 5626 5630 5635 5639 5643 5647 5652
5324 5319 5314 5308 5303 5298 5293 5287 5281 5276 5272 5268 5266 5263 5261 5260 5260 5263 5268 5273 5277 5283 5288 5293 5298 5302 5306 5314 5324 5335 5343 5349 5357 5363 5370 5377 5385 5393 5401 5409 5418 5426 5433 5440 5449 5457 5464 5471 5478 5484 5491 5497 5502 5506 5511 5516 5521 5526 5530 5534 5538 5543 5547 5551 5556 5562 5567 5572 5577 5582 5588 5593 5598 5604 5609 5612 5616 5620 5624 5628 5632 5636 5639 5643 5647
5319 5314 5308 5303 5298 5293 5287 5281 5276 5270 5265 5261 5258 5255 5251 5250 5250 5253 5258 5264 5269 5275 5280 5286 5290 5294 5299 5306 5316 5327 5336 5343 5350 5357 5364 5371 5378 5386 5395 5403 5411 5420 5428 5435 5443 5451 5459 5465 5472 5480 5486 5492 5496 5501 5506 5511 5516 5520 5524 5528 5533 5538 5542 5546 5551 5557 5562 5568 5574 5580 5586 5592 5598 5603 5607 5610 5614 5617 5621 5625 5629 5633 5636 5639 5642
5314 5308 5302 5297 5291 5286 5281 5276 5270 5265 5260 5255 5252 5248 5244 5242 5242 5244 5248 5254 5260 5266 5272 5278 5283 5288 5293 5299 5308 5320 5330 5338 5345 5352 5358 5365 5372 5380 5388 5397 5405 5414 5422 5430 5437 5445 5452 5460 5467 5475 5481 5486 5491 5496 5501 5507 5512 5516 5519 5524 5528 5532 5537 5542 5547 5552 5557 5562 5567 5573 5579 5585 5591 5596 5600 5604 5607 5611 5615 5620 5624 5627 5630 5632 5634
5309 5304 5297 5291 5286 5280 5275 5270 5265 5260 5255 5250 5246 5243 5240 5237 5236 5237 5241 5246 5252 5258 5265 5271 5277 5281 5286 5292 5301 5313 5324 5332 5339 5347 5354 5360 5366 5374 5382 5391 5400 5408 5416 5424 5431 5438 5446 5454 5461 5468 5475 5481 5487 5491 5497 5503 5508 5512 5515 5519 5523 5528 5533 5538 5542 5548 5554 5559 5563 5568 5572 5576 5582 5587 5592 5596 5599 5604 5608 5612 5615 5619 5622 5624 5627
5303 5299 5292 5286 5280 5275 5269 5265 5260 5256 5250 5246 5242 5239 5236 5234 5232 5233 5236 5240 5245 5252 5259 5265 5271 5275 5279 5285 5295 5307 5318 5326 5334 5342 5349 5355 5361 5369 5378 5386 5395 5402 5410 5418 5426 5433 5440 5448 5455 5462 5469 5476 5481 5486 5492 5497 5503 5507 5511 5515 5519 5524 5529 5533 5538 5543 5548 5553 5559 5563 5567 5571 5575 5580 5584 5587 5591 5596 5600 5604 5608 5612 5614 5617 5620
5298 5294 5288 5281 5275 5270 5265 5259 5255 5251 5247 5242 5238 5235 5233 5231 5229 5230 5232 5235 5240 5246 5253 5259 5265 5270 5274 5279 5288 5300 5310 5320 5328 5337 5345 5350 5357 5365 5374 5382 5390 5398 5405 5414 5421 5428 5435 5443 5450 5457 5464 5472 5477 5482 5487 5492 5498 5503 5508 5512 5516 5521 5526 5530 5534 5539 5543 5547 5552 5556 5560 5564 5568 5572 5575 5579 5584 5588 5593 5598 5602 5605 5608 5611 5616
5294 5289 5284 5277 5271 5266 5260 5255 5251 5247 5243 5238 5235 5232 5230 5228 5227 5227 5229 5232 5237 5242 5248 5254 5260 5265 5270 5275 5283 5294 5304 5313 5323 5332 5341 5347 5353 5361 5369 5377 5385 5393 5401 5408 5416 5423 5430 5437 5444 5452 5460 5467 5472 5477 5482 5488 5494 5499 5505 5509 5514 5519 5524 5528 5532 5536 5540 5544 5547 5550 5554 5557 5560 5564 5568 5573 5577 5582 5587 5591 5595 5598 5601 5605 5609
5290 5284 5280 5274 5267 5261 5256 5252 5247 5244 5240 5236 5232 5230 5228 5226 5225 5226 5227 5230 5234 5238 5244 5249 5255 5260 5265 5269 5278 5289 5299 5308 5318 5328 5337 5343 5350 5357 5364 5372 5381 5389 5396 5403 5411 5418 5425 5432 5440 5448 5455 5461 5466 5472 5478 5484 5490 5496 5501 5506 5513 5519 5523 5526 5530 5534 5538 5542 5546 5549 5552 5555 5558 5562 5566 5569 5574 5579 5582 5585 5588 5591 5594 5597 5601
5286 5280 5275 5270 5263 5257 5252 5248 5244 5240 5237 5233 5230 5228 5226 5225 5224 5224 5226 5228 5231 5235 5240 5245 5251 5256 5260 5264 5272 5283 5294 5304 5314 5324 5332 5340 5347 5353 5360 5369 5378 5386 5393 5400 5407 5414 5421 5428 5436 5444 5450 5456 5461 5467 5473 5480 5486 5491 5497 5505 5512 5516 5518 5522 5526 5530 5534 5538 5542 5545 5549 5553 5557 5561 5564 5567 5571 5576 5579 5581 5584 5586 5588 5591 5595
5282 5276 5271 5266 5260 5254 5250 5245 5241 5238 5235 5232 5228 5226 5224 5223 5223 5224 5225 5227 5230 5234 5238 5243 5248 5253 5256 5261 5269 5279 5289 5300 5310 5320 5329 5336 5344 5350 5358 5367 5375 5382 5389 5396 5403 5410 5418 5425 5433 5439 5445 5452 5458 5463 5469 5475 5481 5487 5494 5502 5506 5508 5512 5517 5520 5523 5527 5532 5536 5540 5544 5548 5552 5556 5559 5563 5567 5572 5576 5578 5581 5583 5586 5589 5593
5279 5273 5268 5263 5257 5251 5247 5243 5239 5236 5233 5230 5227 5225 5223 5222 5222 5223 5224 5226 5228 5232 5236 5240 5245 5249 5253 5258 5265 5274 5285 5295 5305 5316 5325 5333 5341 5348 5355 5364 5371 5377 5385 5393 5400 5407 5415 5422 5428 5434 5440 5447 5453 5459 5464 5469 5475 5482 5490 5495 5498 5502 5507 5511 5513 5517 5522 5526 5531 5536 5541 5544 5548 5552 5555 5559 5563 5568 5572 5575 5578 5582 5586 5589 5592
5277 5270 5264 5259 5254 5248 5244 5241 5237 5234 5231 5229 5226 5224 5222 5220 5220 5220 5222 5223 5225 5227 5231 5235 5239 5243 5247 5253 5260 5269 5280 5290 5301 5312 5321 5330 5338 5345 5352 5359 5366 5374 5382 5390 5396 5403 5410 5418 5424 5429 5435 5442 5448 5454 5459 5464 5471 5477 5483 5487 5491 5496 5500 5503 5507 5512 5515 5519 5525 5531 5536 5540 5543 5547 5551 5556 5560 5563 5567 5570 5574 5578 5582 5585 5588
5274 5267 5261 5256 5251 5246 5242 5239 5235 5233 5230 5228 5226 5224 5222 5221 5219 5219 5219 5220 5221 5223 5226 5229 5233 5237 5242 5249 5256 5265 5275 5286 5297 5308 5318 5327 5335 5341 5348 5355 5363 5371 5378 5385 5392 5399 5407 5414 5420 5424 5430 5436 5443 5448 5453 5459 5465 5471 5476 5480 5484 5488 5493 5497 5502 5505 5509 5515 5521 5526 5530 5535 5538 5542 5547 5551 5554 5557 5560 5564 5567 5571 5575 5578 5580
5271 5265 5259 5254 5249 5244 5240 5237 5234 5231 5230 5228 5226 5225 5223 5222 5221 5220 5220 5220 5220 5221 5223 5226 5230 5235 5240 5246 5252 5261 5271 5283 5294 5305 5314 5323 5331 5338 5345 5352 5361 5368 5375 5382 5389 5395 5402 5408 5413 5418 5424 5430 5436 5441 5447 5454 5460 5465 5469 5473 5478 5482 5487 5492 5496 5501 5506 5512 5517 5522 5527 5531 5533 5536 5540 5543 5547 5550 5554 5556 5559 5563 5568 5571 5574
5269 5263 5257 5252 5247 5242 5238 5235 5232 5230 5229 5228 5226 5225 5224 5223 5223 5223 5222 5222 5223 5224 5225 5227 5230 5235 5239 5244 5250 5258 5269 5280 5291 5302 5311 5320 5328 5336 5342 5349 5356 5363 5369 5376 5383 5389 5395 5401 5407 5413 5419 5424 5430 5437 5443 5448 5453 5457 5461 5465 5471 5477 5482 5487 5493 5498 5503 5507 5512 5517 5521 5524 5526 5529 5532 5537 5541 5545 5548 5550 5553 5556 5560 5564 5566
5268 5261 5255 5249 5245 5240 5236 5234 5231 5229 5228 5228 5227 5226 5225 5225 5224 5224 5224 5225 5226 5227 5228 5230 5232 5235 5238 5243 5250 5258 5268 5279 5289 5299 5309 5317 5325 5332 5339 5345 5351 5357 5364 5371 5377 5384 5390 5395 5401 5406 5411 5416 5422 5428 5434 5439 5444 5449 5454 5460 5466 5472 5476 5481 5487 5492 5496 5501 5505 5509 5512 5515 5519 5524 5528 5532 5536 5538 5541 5543 5546 5549 5552 5555 5558
5267 5261 5254 5248 5243 5239 5234 5232 5230 5228 5227 5227 5226 5225 5225 5226 5225 5225 5226 5227 5227 5229 5230 5232 5233 5235 5238 5243 5250 5258 5268 5277 5287 5296 5305 5313 5321 5329 5336 5342 5349 5355 5362 5368 5374 5380 5384 5388 5393 5398 5403 5409 5415 5422 5427 5432 5438 5443 5449 5455 5460 5465 5469 5473 5479 5485 5490 5494 5498 5501 5505 5509 5513 5517 5521 5525 5528 5531 5533 5536 5539 5542 5544 5547 5551
5265 5260 5253 5246 5241 5238 5233 5230 5228 5227 5226 5226 5225 5225 5225 5226 5226 5226 5227 5227 5228 5229 5231 5232 5234 5237 5241 5246 5252 5259 5267 5275 5284 5293 5302 5310 5318 5325 5332 5339 5346 5352 5358 5364 5369 5373 5378 5382 5388 5394 5400 5407 5413 5419 5424 5429 5433 5438 5444 5449 5454 5458 5463 5468 5474 5479 5483 5487 5491 5495 5500 5503 5507 5510 5514 5518 5521 5524 5527 5530 5532 5535 5537 5540 5544
5264 5259 5252 5244 5240 5236 5232 5228 5227 5226 5225 5225 5225 5225 5225 5226 5226 5227 5227 5228 5229 5230 5232 5234 5236 5240 5244 5249 5255 5261 5267 5274 5283 5292 5300 5308 5315 5322 5328 5334 5341 5347 5353 5359 5364 5368 5373 5379 5385 5391 5398 5404 5409 5415 5421 5425 5429 5434 5439 5444 5448 5453 5458 5463 5468 5473 5476 5480 5484 5488 5492 5497 5501 5505 5509 5512 5514 5517 5520 5523 5525 5528 5531 5534 5537
5262 5257 5251 5244 5239 5235 5230 5227 5226 5225 5225 5225 5224 5225 5225 5226 5226 5227 5228 5229 5230 5231 5233 5235 5238 5242 5246 5252 5257 5262 5268 5274 5282 5290 5298 5305 5312 5319 5324 5330 5337 5343 5349 5354 5359 5364 5369 5376 5383 5389 5395 5400 5405 5411 5416 5421 5425 5430 5434 5438 5443 5449 5454 5459 5463 5466 5470 5473 5477 5481 5485 5490 5494 5498 5501 5504 5507 5510 5513 5515 5518 5522 5525 5527 5530
5259 5256 5251 5245 5240 5235 5230 5226 5225 5225 5224 5224 5224 5225 5225 5226 5226 5227 5228 5229 5230 5232 5234 5236 5240 5244 5249 5253 5258 5263 5268 5273 5280 5287 5295 5302 5309 5315 5321 5326 5332 5338 5343 5348 5354 5360 5366 5372 5378 5384 5390 5395 5400 5405 5409 5414 5419 5424 5428 5434 5439 5445 5449 5452 5455 5458 5462 5466 5470 5474 5478 5482 5486 5489 5492 5495 5498 5502 5505 5508 5512 5515 5517 5520 5523
5256 5253 5249 5245 5240 5235 5230 5226 5225 5224 5224 5223 5223 5224 5225 5226 5226 5227 5228 5229 5231 5233 5235 5237 5240 5245 5249 5254 5258 5263 5269 5274 5279 5285 5292 5299 5305 5311 5317 5322 5328 5333 5337 5343 5349 5355 5361 5367 5373 5379 5384 5389 5393 5397 5402 5407 5412 5417 5423 5428 5433 5438 5441 5443 5446 5451 5456 5459 5463 5467 5471 5474 5477 5480 5484 5487 5491 5494 5497 5500 5504 5506 5509 5513 5516
5255 5253 5249 5245 5242 5237 5231 5227 5224 5224 5224 5223 5223 5223 5225 5226 5226 5227 5228 5229 5231 5233 5235 5238 5241 5245 5249 5253 5257 5263 5269 5275 5280 5285 5291 5296 5301 5306 5311 5317 5322 5328 5333 5339 5345 5351 5357 5363 5368 5373 5377 5382 5387 5391 5395 5400 5405 5411 5417 5421 5425 5429 5431 5435 5440 5445 5449 5451 5455 5459 5463 5466 5469 5473 5476 5480 5483 5486 5490 5493 5496 5499 5503 5506 5508
5255 5253 5250 5246 5243 5239 5233 5228 5225 5223 5223 5223 5223 5223 5224 5225 5225 5226 5227 5229 5231 5233 5236 5238 5242 5245 5249 5253 5257 5262 5268 5274 5279 5284 5289 5294 5298 5303 5307 5312 5318 5324 5329 5334 5340 5345 5351 5357 5363 5367 5371 5375 5380 5384 5388 5392 5397 5403 5408 5412 5416 5419 5423 5428 5433 5437 5440 5443 5447 5451 5454 5458 5462 5467 5469 5471 5474 5478 5482 5485 5489 5492 5495 5498 5500
5254 5252 5249 5246 5243 5239 5234 5229 5225 5223 5222 5222 5222 5223 5223 5224 5225 5226 5227 5229 5231 5233 5236 5238 5242 5245 5249 5252 5256 5261 5266 5271 5276 5281 5286 5291 5296 5300 5305 5309 5315 5319 5324 5328 5333 5339 5344 5349 5354 5359 5363 5368 5373 5377 5381 5385 5389 5394 5399 5403 5407 5411 5416 5421 5425 5427 5430 5434 5438 5442 5446 5450 5454 5459 5462 5464 5466 5469 5473 5476 5480 5483 5487 5489 5491
5251 5250 5248 5245 5243 5240 5236 5231 5227 5223 5222 5220 5220 5221 5222 5223 5224 5225 5226 5228 5230 5232 5235 5238 5241 5244 5248 5251 5255 5259 5263 5268 5272 5277 5282 5287 5292 5297 5302 5307 5311 5316 5320 5325 5330 5334 5339 5343 5347 5352 5356 5360 5364 5369 5373 5377 5381 5386 5390 5395 5399 5403 5407 5411 5415 5418 5421 5425 5429 5433 5438 5441 5445 5448 5452 5455 5458 5461 5465 5468 5471 5475 5478 5479 5480
5249 5247 5246 5244 5242 5239 5237 5233 5229 5226 5223 5220 5219 5220 5220 5222 5223 5224 5226 5228 5229 5231 5234 5236 5239 5243 5246 5250 5254 5258 5261 5265 5269 5273 5278 5283 5288 5293 5298 5303 5308 5312 5316 5321 5325 5329 5333 5338 5342 5346 5351 5354 5358 5362 5366 5370 5374 5378 5382 5386 5390 5394 5398 5402 5406 5410 5414 5418 5422 5425 5429 5432 5435 5438 5442 5446 5450 5453 5456 5459 5462 5465 5468 5469 5470
5247 5245 5244 5242 5240 5239 5236 5234 5230 5228 5225 5221 5219 5218 5219 5220 5221 5223 5224 5226 5228 5230 5232 5235 5237 5241 5244 5247 5251 5254 5258 5262 5265 5269 5274 5278 5283 5288 5293 5298 5303 5307 5311 5315 5319 5323 5328 5332 5336 5340 5344 5348 5352 5355 5359 5363 5367 5370 5374 5378 5382 5385 5390 5394 5398 5402 5406 5410 5413 5416 5420 5423 5426 5429 5431 5436 5440 5444 5447 5449 5452 5455 5458 5460 5462
5244 5243 5241 5240 5238 5237 5235 5233 5231 5229 5226 5223 5220 5218 5217 5218 5219 5221 5222 5224 5226 5229 5231 5233 5236 5238 5241 5244 5247 5250 5254 5257 5261 5265 5269 5274 5278 5283 5287 5292 5297 5301 5305 5309 5313 5317 5321 5325 5329 5333 5337 5341 5344 5348 5352 5355 5359 5363 5366 5370 5374 5377 5381 5386 5389 5393 5397 5400 5404 5407 5411 5415 5417 5419 5423 5427 5431 5433 5435 5438 5441 5445 5447 5450 5452
5241 5240 5239 5238 5237 5235 5234 5233 5231 5228 5226 5224 5221 5219 5217 5216 5217 5218 5220 5222 5224 5226 5229 5231 5233 5236 5238 5241 5244 5247 5250 5253 5257 5261 5265 5269 5273 5277 5281 5285 5290 5294 5298 5301 5306 5310 5314 5318 5322 5325 5329 5333 5337 5341 5344 5347 5351 5354 5358 5362 5365 5369 5373 5377 5380 5384 5387 5391 5394 5398 5402 5405 5408 5411 5414 5418 5420 5421 5424 5427 5430 5433 5435 5438 5440
5239 5238 5237 5236 5235 5234 5233 5232 5230 5228 5226 5225 5223 5220 5217 5216 5215 5216 5217 5219 5221 5223 5226 5228 5230 5233 5235 5238 5241 5244 5246 5249 5252 5256 5260 5264 5267 5271 5275 5279 5283 5287 5291 5294 5298 5302 5306 5310 5314 5317 5321 5325 5328 5332 5336 5339 5342 5346 5349 5352 5356 5359 5363 5367 5371 5375 5378 5382 5385 5389 5392 5395 5398 5402 5405 5407 5409 5411 5413 5416 5418 5420 5423 5426 5428
5237 5235 5234 5233 5232 5231 5231 5230 5229 5227 5226 5224 5222 5221 5218 5216 5215 5215 5215 5216 5218 5220 5222 5224 5227 5229 5232 5234 5237 5240 5243 5245 5248 5251 5255 5258 5262 5265 5269 5273 5277 5280 5284 5288 5291 5295 5299 5302 5306 5309 5313 5317 5320 5323 5327 5330 5333 5336 5339 5343 5347 5351 5355 5358 5362 5366 5370 5373 5376 5379 5382 5385 5388 5391 5394 5396 5399 5401 5403 5405 5407 5410 5412 5415 5417
5234 5233 5232 5230 5230 5229 5228 5228 5227 5226 5225 5223 5222 5220 5219 5217 5216 5214 5214 5214 5215 5217 5218 5220 5223 5226 5228 5231 5233 5236 5238 5241 5244 5247 5250 5253 5256 5260 5263 5267 5270 5274 5277 5281 5284 5288 5291 5294 5298 5302 5305 5309 5312 5315 5318 5322 5325 5327 5330 5334 5337 5342 5346 5349 5353 5357 5360 5363 5366 5369 5372 5375 5378 5381 5383 5386 5388 5391 5392 5395 5397 5399 5401 5403 5405
5232 5231 5229 5228 5227 5227 5226 5226 5225 5225 5224 5222 5221 5220 5219 5218 5217 5215 5214 5213 5213 5214 5215 5217 5219 5221 5224 5226 5229 5231 5233 5236 5238 5241 5244 5247 5251 5254 5257 5261 5264 5267 5271 5274 5277 5280 5284 5287 5290 5294 5297 5301 5304 5307 5310 5313 5316 5319 5322 5325 5328 5332 5336 5340 5343 5347 5350 5353 5356 5358 5361 5364 5367 5370 5372 5374 5376 5379 5381 5383 5385 5387 5389 5392 5394
5230 5229 5227 5226 5225 5225 5224 5224 5223 5223 5222 5222 5220 5219 5218 5218 5217 5216 5215 5214 5213 5212 5213 5214 5215 5217 5219 5222 5224 5226 5228 5230 5233 5236 5239 5241 5245 5248 5251 5255 5258 5261 5264 5267 5270 5273 5276 5279 5282 5286 5289 5292 5296 5299 5302 5305 5308 5311 5314 5316 5319 5322 5326 5329 5333 5336 5339 5342 5344 5347 5350 5353 5356 5358 5361 5363 5364 5366 5369 5371 5373 5375 5377 5380 5382
5227 5226 5225 5224 5223 5222 5221 5221 5221 5221 5221 5220 5219 5218 5218 5217 5216 5216 5215 5214 5213 5212 5211 5212 5212 5214 5215 5217 5219 5221 5223 5225 5227 5230 5233 5235 5239 5242 5245 5248 5251 5254 5257 5260 5263 5266 5269 5272 5275 5278 5281 5284 5287 5290 5293 5296 5299 5302 5305 5308 5311 5313 5316 5320 5322 5325 5328 5331 5333 5336 5339 5342 5345 5347 5349 5351 5353 5355 5357 5360 5361 5363 5365 5367 5370
5224 5223 5222 5221 5220 5219 5218 5218 5218 5218 5218 5218 5218 5217 5217 5216 5215 5215 5214 5214 5213 5212 5211 5211 5211 5211 5212 5213 5215 5216 5218 5220 5222 5224 5227 5229 5232 5235 5238 5241 5244 5247 5250 5253 5256 5259 5262 5265 5268 5270 5273 5276 5279 5281 5284 5287 5290 5293 5296 5299 5302 5304 5308 5310 5313 5316 5318 5321 5323 5326 5329 5331 5334 5337 5339 5341 5343 5345 5347 5349 5351 5352 5354 5356 5358
5220 5220 5219 5218 5218 5217 5216 5215 5215 5215 5215 5215 5215 5215 5215 5214 5214 5214 5213 5213 5212 5212 5211 5211 5210 5210 5210 5211 5212 5213 5214 5215 5217 5219 5221 5223 5226 5229 5231 5234 5237 5240 5242 5245 5248 5251 5254 5256 5259 5262 5265 5268 5270 5273 5276 5278 5281 5284 5287 5290 5293 5295 5298 5301 5304 5306 5309 5312 5314 5317 5319 5321 5324 5326 5328 5330 5332 5334 5336 5338 5340 5342 5344 5346 5348
5216 5216 5216 5215 5215 5214 5213 5212 5212 5212 5212 5212 5212 5212 5212 5212 5212 5212 5212 5212 5211 5211 5211 5210 5210 5210 5209 5210 5210 5210 5211 5212 5213 5214 5216 5217 5220 5222 5224 5227 5230 5232 5235 5237 5240 5242 5245 5248 5250 5253 5256 5258 5261 5264 5267 5269 5272 5275 5278 5280 5283 5286 5289 5292 5294 5297 5300 5302 5304 5307 5309 5311 5313 5316 5318 5320 5322 5323 5325 5327 5329 5331 5333 5335 5337